Location: Antioch Church
(34.9543°N, 88.5145°W)
Time: 10:58:21
(UTC+00:00)

STARLINK 1032 - Pass Details

Date: 11 December 2019
Orbit: 469 x 471 km, 53.0° (Epoch: 24 January)

Event Time Altitude Azimuth Distance (km) Brightness Sun altitude
Exits shadow 11:25:38 44° 301° (WNW) 619 3.4 -17.1°
Maximum altitude 11:26:36 75° 226° (SW) 461 3.1 -16.9°
Drops below altitude 10° 11:30:05 10° 141° (SE) 1,556 6.8 -16.3°
Sets 11:32:12 0° 139° (SE) 2,424 7.9 -15.8°
